QPF
0.12 0.09 0.10 0.12 0.20 0.22 0.31 0.14 0.08 0.08 0.06 0.06 0.05 0.04 0.05 0.08 0.08 0.07 0.09 0.11 0.12 0.13 0.13 0.15 0.19 0.20 0.19 0.18 0.17 0.14 0.11 0.09 0.08 0.07 0.06 0.05 0.05 0.04 0.03 0.05 0.08 0.08 0.07
0.09 0.08 0.11 0.10 0.10 0.15 0.13 0.08 0.08 0.09 0.08 0.06 0.07 0.07 0.06 0.08 0.08 0.08 0.11 0.12 0.12 0.15 0.13 0.14 0.17 0.17 0.14 0.12 0.12 0.12 0.11 0.09 0.07 0.07 0.06 0.05 0.04 0.03 0.04 0.06 0.08 0.08 0.07
0.09 0.07 0.08 0.09 0.07 0.07 0.07 0.06 0.06 0.07 0.06 0.05 0.06 0.06 0.06 0.07 0.10 0.10 0.11 0.12 0.14 0.17 0.14 0.14 0.14 0.15 0.10 0.11 0.12 0.13 0.10 0.07 0.06 0.07 0.10 0.10 0.06 0.05 0.05 0.07 0.06 0.07 0.07
0.10 0.11 0.07 0.07 0.07 0.06 0.05 0.04 0.04 0.04 0.05 0.05 0.07 0.07 0.06 0.06 0.08 0.09 0.08 0.10 0.13 0.13 0.10 0.12 0.11 0.12 0.10 0.12 0.12 0.10 0.07 0.07 0.09 0.11 0.15 0.14 0.09 0.07 0.07 0.05 0.05 0.07 0.07
0.12 0.11 0.08 0.05 0.05 0.03 0.02 0.02 0.03 0.05 0.05 0.05 0.06 0.06 0.06 0.06 0.05 0.07 0.09 0.11 0.11 0.09 0.07 0.08 0.10 0.10 0.09 0.09 0.07 0.05 0.05 0.05 0.08 0.10 0.15 0.15 0.10 0.06 0.04 0.04 0.04 0.04 0.05
0.08 0.09 0.07 0.05 0.05 0.04 0.04 0.04 0.05 0.05 0.04 0.04 0.06 0.06 0.04 0.05 0.04 0.06 0.09 0.10 0.09 0.07 0.06 0.07 0.08 0.07 0.04 0.04 0.03 0.02 0.03 0.05 0.08 0.07 0.08 0.10 0.08 0.05 0.03 0.02 0.03 0.04 0.04
0.06 0.06 0.04 0.04 0.04 0.04 0.04 0.04 0.04 0.03 0.03 0.04 0.05 0.05 0.05 0.05 0.04 0.06 0.08 0.09 0.07 0.07 0.07 0.07 0.08 0.05 0.03 0.03 0.02 0.02 0.02 0.04 0.05 0.04 0.07 0.11 0.07 0.04 0.03 0.03 0.03 0.02 0.03
0.04 0.04 0.02 0.01 0.01 0.04 0.05 0.04 0.04 0.04 0.04 0.04 0.04 0.04 0.05 0.06 0.06 0.07 0.08 0.07 0.06 0.07 0.08 0.09 0.07 0.04 0.02 0.03 0.03 0.02 0.02 0.02 0.03 0.04 0.08 0.11 0.06 0.03 0.03 0.03 0.03 0.03 0.03
0.02 0.02 0.02 0.01 0.01 0.05 0.04 0.03 0.04 0.04 0.05 0.05 0.07 0.06 0.05 0.05 0.06 0.09 0.09 0.06 0.06 0.07 0.09 0.09 0.06 0.03 0.02 0.02 0.02 0.02 0.02 0.03 0.04 0.05 0.08 0.09 0.05 0.04 0.04 0.03 0.03 0.03 0.04
0.01 0.01 0.02 0.03 0.04 0.04 0.03 0.03 0.04 0.05 0.05 0.06 0.09 0.08 0.05 0.07 0.09 0.10 0.09 0.06 0.07 0.10 0.12 0.09 0.05 0.03 0.03 0.02 0.02 0.02 0.03 0.03 0.04 0.06 0.07 0.08 0.05 0.04 0.05 0.04 0.03 0.04 0.05
0.01 0.01 0.01 0.03 0.03 0.04 0.05 0.04 0.04 0.06 0.06 0.09 0.13 0.14 0.12 0.14 0.13 0.11 0.08 0.08 0.10 0.12 0.12 0.09 0.05 0.06 0.05 0.03 0.03 0.03 0.03 0.04 0.06 0.07 0.04 0.04 0.02 0.02 0.04 0.03 0.02 0.04 0.04
0.01 0.01 0.02 0.03 0.03 0.05 0.09 0.05 0.06 0.06 0.10 0.12 0.09 0.12 0.14 0.13 0.14 0.08 0.10 0.12 0.14 0.13 0.10 0.07 0.04 0.08 0.08 0.06 0.04 0.03 0.03 0.03 0.04 0.06 0.05 0.03 0.01 0.02 0.03 0.02 0.03 0.04 0.03
0.01 0.01 0.01 0.02 0.02 0.08 0.13 0.07 0.06 0.06 0.08 0.10 0.05 0.05 0.10 0.12 0.11 0.12 0.16 0.18 0.14 0.11 0.10 0.07 0.06 0.10 0.10 0.08 0.07 0.05 0.03 0.02 0.03 0.04 0.05 0.04 0.02 0.02 0.03 0.02 0.03 0.04 0.04
0.01 0.01 0.01 0.01 0.02 0.08 0.10 0.08 0.06 0.04 0.04 0.05 0.04 0.03 0.05 0.12 0.18 0.18 0.16 0.14 0.10 0.08 0.11 0.10 0.11 0.12 0.10 0.07 0.05 0.06 0.03 0.02 0.04 0.04 0.08 0.03 0.02 0.02 0.02 0.01 0.01 0.02 0.03
0.01 0.01 0.01 0.01 0.01 0.03 0.07 0.08 0.04 0.04 0.04 0.03 0.04 0.04 0.06 0.13 0.16 0.11 0.09 0.08 0.06 0.06 0.08 0.10 0.10 0.09 0.09 0.07 0.06 0.06 0.05 0.03 0.05 0.05 0.04 0.03 0.03 0.03 0.02 0.01 0.02 0.02 0.02
0.01 0.02 0.01 0.01 0.01 0.01 0.04 0.06 0.05 0.05 0.06 0.04 0.03 0.04 0.07 0.09 0.09 0.07 0.06 0.07 0.06 0.07 0.08 0.10 0.09 0.08 0.07 0.07 0.07 0.07 0.06 0.04 0.04 0.04 0.04 0.04 0.03 0.03 0.02 0.02 0.02 0.02 0.02
0.01 0.01 0.01 0.01 0.01 0.01 0.01 0.02 0.03 0.04 0.04 0.04 0.04 0.04 0.05 0.05 0.05 0.05 0.05 0.06 0.06 0.07 0.11 0.12 0.10 0.08 0.06 0.05 0.06 0.06 0.06 0.04 0.03 0.04 0.05 0.04 0.03 0.03 0.03 0.01 0.02 0.02 0.02
0.01 0.01 0.01 0.01 0.01 0.01 0.01 0.01 0.02 0.02 0.02 0.03 0.04 0.03 0.03 0.03 0.03 0.05 0.05 0.06 0.08 0.10 0.13 0.10 0.09 0.07 0.06 0.06 0.07 0.06 0.05 0.05 0.05 0.05 0.06 0.06 0.04 0.03 0.03 0.03 0.02 0.02 0.02
0.01 0.01 0.01 0.02 0.01 0.01 0.01 0.01 0.02 0.03 0.03 0.03 0.04 0.04 0.03 0.03 0.03 0.05 0.07 0.08 0.09 0.09 0.11 0.08 0.08 0.07 0.06 0.07 0.07 0.06 0.03 0.03 0.04 0.03 0.04 0.06 0.04 0.03 0.02 0.03 0.02 0.02 0.02
0.00 0.00 0.01 0.02 0.02 0.03 0.02 0.01 0.02 0.03 0.04 0.04 0.04 0.05 0.04 0.04 0.04 0.05 0.06 0.08 0.09 0.09 0.10 0.09 0.09 0.07 0.06 0.05 0.04 0.05 0.03 0.03 0.02 0.03 0.06 0.05 0.05 0.04 0.02 0.02 0.03 0.02 0.02
0.00 0.00 0.00 0.01 0.02 0.03 0.03 0.03 0.03 0.04 0.04 0.04 0.05 0.05 0.05 0.04 0.04 0.05 0.06 0.09 0.10 0.10 0.10 0.09 0.09 0.09 0.06 0.04 0.05 0.06 0.05 0.04 0.04 0.03 0.04 0.03 0.03 0.04 0.04 0.04 0.04 0.05 0.05
0.00 0.00 0.00 0.00 0.02 0.02 0.03 0.04 0.04 0.04 0.03 0.03 0.03 0.06 0.06 0.05 0.06 0.06 0.09 0.11 0.12 0.11 0.11 0.09 0.08 0.07 0.05 0.04 0.06 0.09 0.11 0.11 0.08 0.04 0.03 0.03 0.04 0.04 0.05 0.07 0.08 0.07 0.05
0.00 0.00 0.00 0.01 0.02 0.03 0.04 0.04 0.05 0.05 0.04 0.03 0.03 0.04 0.06 0.07 0.07 0.09 0.11 0.13 0.15 0.12 0.11 0.09 0.08 0.07 0.06 0.05 0.06 0.08 0.09 0.11 0.10 0.07 0.05 0.04 0.05 0.05 0.05 0.06 0.07 0.07 0.07
0.01 0.00 0.01 0.03 0.03 0.03 0.03 0.04 0.06 0.05 0.04 0.04 0.04 0.03 0.05 0.07 0.10 0.12 0.12 0.13 0.14 0.14 0.11 0.08 0.07 0.07 0.07 0.07 0.07 0.06 0.06 0.08 0.10 0.10 0.08 0.07 0.06 0.06 0.07 0.06 0.05 0.07 0.08
0.01 0.01 0.02 0.03 0.03 0.04 0.04 0.04 0.04 0.04 0.05 0.04 0.05 0.06 0.06 0.07 0.09 0.11 0.11 0.11 0.10 0.12 0.10 0.09 0.09 0.05 0.05 0.05 0.05 0.04 0.05 0.06 0.07 0.09 0.09 0.08 0.06 0.05 0.05 0.05 0.04 0.04 0.06
0.01 0.01 0.01 0.01 0.01 0.02 0.02 0.01 0.01 0.03 0.05 0.05 0.07 0.07 0.06 0.06 0.06 0.07 0.07 0.06 0.06 0.07 0.08 0.09 0.08 0.06 0.05 0.05 0.04 0.02 0.02 0.03 0.04 0.06 0.06 0.06 0.06 0.06 0.04 0.04 0.04 0.04 0.05
MSLP
1011.46 1011.15 1010.91 1010.81 1010.86 1011.04 1011.30 1011.58 1011.83 1012.01 1012.13 1012.21 1012.30 1012.42 1012.59 1012.83 1013.10 1013.37 1013.61 1013.78 1013.88 1013.91 1013.91 1013.90 1013.91 1013.94 1013.99 1014.04 1014.09 1014.10 1014.09 1014.05 1013.99 1013.95 1013.93 1013.95 1014.01 1014.08 1014.17 1014.24 1014.28 1014.30 1014.30
1011.42 1011.27 1011.19 1011.23 1011.38 1011.60 1011.86 1012.09 1012.26 1012.37 1012.43 1012.48 1012.56 1012.71 1012.92 1013.20 1013.50 1013.78 1014.00 1014.14 1014.19 1014.18 1014.14 1014.09 1014.07 1014.07 1014.09 1014.10 1014.10 1014.06 1013.99 1013.89 1013.79 1013.71 1013.67 1013.69 1013.76 1013.86 1013.97 1014.07 1014.15 1014.20 1014.23
1011.32 1011.32 1011.40 1011.59 1011.84 1012.13 1012.39 1012.59 1012.71 1012.75 1012.76 1012.77 1012.84 1012.99 1013.21 1013.48 1013.77 1014.02 1014.20 1014.30 1014.31 1014.27 1014.20 1014.13 1014.10 1014.08 1014.08 1014.06 1014.01 1013.92 1013.79 1013.64 1013.49 1013.39 1013.34 1013.36 1013.45 1013.58 1013.73 1013.87 1013.99 1014.09 1014.16
1011.15 1011.28 1011.51 1011.83 1012.19 1012.54 1012.84 1013.03 1013.12 1013.13 1013.10 1013.08 1013.13 1013.25 1013.44 1013.68 1013.92 1014.12 1014.24 1014.28 1014.25 1014.19 1014.11 1014.05 1014.02 1014.00 1013.99 1013.95 1013.87 1013.73 1013.55 1013.35 1013.18 1013.06 1013.01 1013.05 1013.15 1013.31 1013.50 1013.68 1013.85 1013.99 1014.11
1010.97 1011.19 1011.52 1011.95 1012.40 1012.82 1013.16 1013.37 1013.46 1013.46 1013.41 1013.38 1013.40 1013.50 1013.65 1013.83 1014.00 1014.12 1014.17 1014.15 1014.08 1014.00 1013.92 1013.88 1013.87 1013.88 1013.87 1013.82 1013.71 1013.54 1013.33 1013.11 1012.92 1012.80 1012.77 1012.82 1012.95 1013.14 1013.35 1013.55 1013.75 1013.93 1014.10
1010.79 1011.06 1011.46 1011.96 1012.48 1012.96 1013.33 1013.58 1013.68 1013.70 1013.66 1013.63 1013.64 1013.71 1013.82 1013.94 1014.03 1014.07 1014.04 1013.97 1013.86 1013.77 1013.71 1013.69 1013.71 1013.74 1013.75 1013.70 1013.59 1013.40 1013.19 1012.97 1012.79 1012.69 1012.69 1012.77 1012.92 1013.12 1013.34 1013.55 1013.76 1013.95 1014.14
1010.67 1010.94 1011.37 1011.89 1012.45 1012.96 1013.37 1013.64 1013.78 1013.82 1013.81 1013.80 1013.82 1013.88 1013.95 1014.01 1014.04 1014.00 1013.91 1013.78 1013.65 1013.55 1013.50 1013.52 1013.57 1013.63 1013.66 1013.63 1013.52 1013.35 1013.15 1012.97 1012.83 1012.78 1012.81 1012.93 1013.11 1013.31 1013.52 1013.71 1013.90 1014.07 1014.25
1010.62 1010.87 1011.28 1011.80 1012.36 1012.87 1013.28 1013.57 1013.73 1013.81 1013.84 1013.86 1013.91 1013.96 1014.02 1014.04 1014.01 1013.92 1013.77 1013.60 1013.45 1013.35 1013.33 1013.37 1013.45 1013.54 1013.60 1013.59 1013.51 1013.38 1013.23 1013.11 1013.04 1013.05 1013.15 1013.32 1013.52 1013.72 1013.90 1014.05 1014.19 1014.31 1014.45
1010.63 1010.85 1011.23 1011.73 1012.25 1012.73 1013.12 1013.40 1013.57 1013.67 1013.73 1013.79 1013.86 1013.94 1013.99 1014.00 1013.94 1013.80 1013.62 1013.43 1013.27 1013.17 1013.16 1013.23 1013.34 1013.46 1013.55 1013.58 1013.55 1013.48 1013.40 1013.36 1013.38 1013.49 1013.67 1013.89 1014.12 1014.32 1014.46 1014.56 1014.62 1014.67 1014.74
1010.67 1010.87 1011.22 1011.67 1012.15 1012.58 1012.93 1013.17 1013.33 1013.43 1013.51 1013.59 1013.69 1013.78 1013.85 1013.85 1013.78 1013.63 1013.44 1013.24 1013.07 1012.99 1012.99 1013.08 1013.23 1013.38 1013.51 1013.59 1013.62 1013.62 1013.63 1013.69 1013.81 1014.02 1014.28 1014.57 1014.83 1015.03 1015.15 1015.19 1015.17 1015.14 1015.12
1010.68 1010.88 1011.21 1011.63 1012.05 1012.43 1012.72 1012.91 1013.04 1013.12 1013.19 1013.29 1013.40 1013.51 1013.58 1013.60 1013.53 1013.39 1013.20 1013.00 1012.85 1012.78 1012.81 1012.93 1013.10 1013.29 1013.46 1013.60 1013.70 1013.78 1013.88 1014.04 1014.27 1014.57 1014.92 1015.27 1015.57 1015.77 1015.87 1015.87 1015.78 1015.67 1015.56
1010.60 1010.83 1011.17 1011.56 1011.95 1012.27 1012.51 1012.65 1012.72 1012.77 1012.82 1012.91 1013.02 1013.13 1013.22 1013.25 1013.20 1013.07 1012.90 1012.73 1012.61 1012.57 1012.63 1012.78 1012.99 1013.22 1013.44 1013.63 1013.80 1013.96 1014.14 1014.39 1014.70 1015.08 1015.50 1015.90 1016.23 1016.46 1016.55 1016.52 1016.40 1016.23 1016.05
1010.39 1010.67 1011.03 1011.43 1011.80 1012.10 1012.29 1012.39 1012.42 1012.42 1012.45 1012.50 1012.60 1012.71 1012.80 1012.84 1012.81 1012.72 1012.59 1012.46 1012.38 1012.38 1012.48 1012.67 1012.92 1013.20 1013.47 1013.72 1013.95 1014.17 1014.42 1014.72 1015.09 1015.52 1015.97 1016.41 1016.77 1017.02 1017.12 1017.10 1016.97 1016.77 1016.56
1010.05 1010.38 1010.79 1011.21 1011.60 1011.89 1012.06 1012.14 1012.14 1012.11 1012.10 1012.12 1012.19 1012.29 1012.38 1012.43 1012.43 1012.38 1012.30 1012.22 1012.20 1012.25 1012.40 1012.64 1012.94 1013.27 1013.59 1013.89 1014.17 1014.44 1014.72 1015.05 1015.43 1015.86 1016.32 1016.76 1017.13 1017.40 1017.53 1017.54 1017.43 1017.26 1017.05
1009.61 1009.98 1010.44 1010.91 1011.32 1011.63 1011.82 1011.90 1011.89 1011.85 1011.81 1011.80 1011.84 1011.92 1012.00 1012.07 1012.10 1012.10 1012.07 1012.06 1012.10 1012.22 1012.43 1012.72 1013.07 1013.45 1013.82 1014.17 1014.48 1014.77 1015.06 1015.37 1015.73 1016.13 1016.55 1016.96 1017.32 1017.60 1017.77 1017.82 1017.78 1017.65 1017.49
1009.14 1009.54 1010.03 1010.53 1010.99 1011.35 1011.58 1011.69 1011.69 1011.65 1011.59 1011.56 1011.58 1011.63 1011.70 1011.78 1011.85 1011.90 1011.95 1012.01 1012.12 1012.31 1012.58 1012.92 1013.32 1013.74 1014.16 1014.54 1014.87 1015.16 1015.43 1015.71 1016.01 1016.33 1016.68 1017.04 1017.37 1017.65 1017.85 1017.96 1017.99 1017.95 1017.85
1008.73 1009.13 1009.62 1010.16 1010.66 1011.07 1011.35 1011.50 1011.54 1011.51 1011.44 1011.39 1011.38 1011.41 1011.48 1011.58 1011.68 1011.79 1011.91 1012.05 1012.24 1012.49 1012.82 1013.21 1013.65 1014.11 1014.55 1014.95 1015.29 1015.58 1015.83 1016.05 1016.27 1016.51 1016.78 1017.05 1017.33 1017.60 1017.82 1017.98 1018.09 1018.14 1018.14
1008.42 1008.80 1009.29 1009.83 1010.36 1010.81 1011.15 1011.35 1011.42 1011.41 1011.34 1011.27 1011.24 1011.25 1011.31 1011.42 1011.56 1011.73 1011.92 1012.14 1012.41 1012.72 1013.10 1013.53 1014.00 1014.48 1014.94 1015.36 1015.71 1015.99 1016.21 1016.39 1016.54 1016.70 1016.87 1017.06 1017.28 1017.51 1017.74 1017.95 1018.13 1018.27 1018.35
1008.24 1008.58 1009.04 1009.57 1010.11 1010.60 1010.98 1011.22 1011.33 1011.33 1011.26 1011.17 1011.10 1011.09 1011.15 1011.27 1011.45 1011.67 1011.94 1012.24 1012.57 1012.94 1013.36 1013.81 1014.30 1014.79 1015.26 1015.69 1016.05 1016.34 1016.55 1016.70 1016.81 1016.89 1016.99 1017.11 1017.27 1017.46 1017.68 1017.92 1018.15 1018.35 1018.50
1008.12 1008.43 1008.86 1009.38 1009.92 1010.42 1010.83 1011.10 1011.23 1011.24 1011.16 1011.04 1010.95 1010.91 1010.96 1011.09 1011.30 1011.59 1011.92 1012.28 1012.68 1013.10 1013.54 1014.01 1014.50 1014.99 1015.46 1015.90 1016.28 1016.58 1016.81 1016.96 1017.05 1017.11 1017.15 1017.22 1017.32 1017.47 1017.67 1017.91 1018.17 1018.42 1018.63
1007.99 1008.28 1008.69 1009.19 1009.73 1010.24 1010.66 1010.95 1011.10 1011.10 1011.01 1010.87 1010.75 1010.69 1010.72 1010.86 1011.10 1011.43 1011.83 1012.26 1012.70 1013.16 1013.62 1014.09 1014.57 1015.04 1015.51 1015.96 1016.36 1016.70 1016.96 1017.15 1017.26 1017.31 1017.34 1017.38 1017.45 1017.56 1017.73 1017.96 1018.22 1018.49 1018.74
1007.70 1008.01 1008.43 1008.93 1009.47 1009.99 1010.43 1010.74 1010.89 1010.90 1010.80 1010.64 1010.50 1010.41 1010.43 1010.58 1010.85 1011.22 1011.66 1012.14 1012.63 1013.12 1013.59 1014.05 1014.50 1014.96 1015.42 1015.87 1016.29 1016.67 1016.99 1017.23 1017.39 1017.48 1017.53 1017.56 1017.61 1017.70 1017.84 1018.04 1018.29 1018.57 1018.84
1007.17 1007.53 1007.97 1008.50 1009.06 1009.60 1010.06 1010.40 1010.58 1010.61 1010.51 1010.35 1010.19 1010.09 1010.11 1010.26 1010.55 1010.95 1011.43 1011.96 1012.48 1012.98 1013.45 1013.90 1014.33 1014.76 1015.19 1015.64 1016.08 1016.50 1016.87 1017.18 1017.41 1017.57 1017.66 1017.72 1017.77 1017.84 1017.96 1018.13 1018.36 1018.63 1018.91
1006.32 1006.75 1007.25 1007.81 1008.41 1008.99 1009.50 1009.89 1010.12 1010.20 1010.14 1010.00 1009.85 1009.75 1009.76 1009.92 1010.22 1010.64 1011.16 1011.71 1012.26 1012.77 1013.24 1013.67 1014.06 1014.46 1014.87 1015.29 1015.74 1016.19 1016.61 1016.99 1017.30 1017.53 1017.68 1017.78 1017.85 1017.92 1018.02 1018.17 1018.38 1018.64 1018.92
1005.17 1005.67 1006.23 1006.85 1007.50 1008.14 1008.73 1009.19 1009.51 1009.66 1009.66 1009.57 1009.45 1009.38 1009.40 1009.57 1009.87 1010.31 1010.84 1011.41 1011.98 1012.50 1012.96 1013.37 1013.74 1014.10 1014.47 1014.87 1015.31 1015.77 1016.22 1016.65 1017.03 1017.33 1017.55 1017.70 1017.80 1017.89 1017.99 1018.13 1018.32 1018.57 1018.85
1003.82 1004.37 1004.97 1005.64 1006.35 1007.07 1007.74 1008.30 1008.72 1008.97 1009.07 1009.06 1009.00 1008.97 1009.01 1009.18 1009.50 1009.94 1010.48 1011.06 1011.64 1012.17 1012.63 1013.03 1013.37 1013.70 1014.03 1014.40 1014.81 1015.26 1015.73 1016.19 1016.61 1016.97 1017.25 1017.46 1017.61 1017.72 1017.83 1017.97 1018.16 1018.40 1018.69
Thickness
5798 5797 5794 5793 5793 5792 5790 5787 5786 5785 5785 5784 5783 5782 5781 5780 5779 5777 5776 5775 5774 5773 5772 5771 5770 5769 5768 5767 5766 5765 5764 5764 5763 5763 5762 5760 5759 5758 5757 5756 5756 5754 5753
5802 5798 5794 5792 5791 5790 5788 5787 5785 5784 5784 5783 5782 5781 5780 5779 5778 5776 5775 5774 5773 5772 5771 5770 5769 5768 5768 5767 5766 5765 5764 5764 5763 5762 5761 5760 5759 5758 5757 5757 5756 5754 5752
5803 5798 5794 5792 5791 5789 5788 5786 5785 5784 5783 5782 5781 5780 5779 5778 5777 5776 5774 5773 5772 5771 5770 5769 5769 5768 5767 5766 5765 5765 5764 5764 5763 5763 5762 5761 5759 5758 5757 5756 5755 5753 5752
5805 5799 5795 5791 5790 5789 5787 5786 5784 5783 5782 5781 5781 5780 5779 5777 5777 5776 5774 5773 5772 5771 5770 5769 5768 5768 5767 5766 5765 5765 5765 5764 5764 5763 5763 5762 5760 5758 5757 5756 5754 5753 5751
5805 5799 5794 5791 5789 5788 5787 5785 5784 5783 5782 5781 5781 5780 5779 5778 5777 5776 5774 5773 5772 5771 5770 5769 5768 5767 5767 5766 5765 5765 5765 5765 5765 5765 5764 5763 5761 5759 5757 5756 5754 5753 5751
5805 5800 5794 5791 5789 5788 5786 5785 5784 5782 5782 5781 5780 5780 5779 5778 5777 5775 5774 5773 5772 5771 5770 5769 5768 5767 5767 5766 5766 5766 5766 5766 5766 5767 5766 5764 5761 5759 5758 5756 5754 5753 5751
5805 5800 5794 5791 5789 5788 5786 5785 5784 5782 5781 5781 5780 5780 5779 5778 5776 5775 5774 5772 5771 5771 5770 5769 5768 5767 5767 5767 5767 5767 5767 5767 5768 5769 5767 5765 5762 5760 5758 5756 5754 5753 5751
5807 5801 5795 5791 5790 5788 5787 5785 5783 5782 5782 5781 5780 5780 5779 5777 5776 5775 5773 5772 5771 5771 5770 5769 5768 5767 5767 5767 5767 5767 5767 5767 5770 5770 5767 5764 5762 5759 5757 5755 5754 5752 5751
5809 5804 5798 5794 5791 5789 5787 5786 5784 5783 5782 5781 5781 5780 5779 5777 5776 5775 5773 5772 5771 5771 5770 5769 5769 5768 5768 5768 5768 5768 5768 5768 5769 5769 5766 5763 5761 5758 5756 5754 5753 5752 5751
5810 5806 5803 5799 5795 5792 5789 5787 5785 5784 5783 5782 5781 5780 5779 5777 5776 5775 5774 5773 5772 5771 5771 5770 5769 5769 5768 5768 5768 5768 5768 5769 5770 5769 5766 5762 5760 5758 5756 5754 5752 5751 5750
5809 5808 5806 5803 5799 5796 5793 5790 5787 5786 5784 5783 5782 5780 5779 5778 5777 5776 5775 5773 5773 5772 5771 5771 5770 5769 5769 5769 5769 5769 5768 5770 5770 5768 5765 5762 5760 5758 5756 5754 5752 5751 5750
5807 5808 5808 5805 5802 5799 5798 5793 5791 5789 5785 5784 5783 5782 5781 5780 5779 5778 5776 5775 5774 5773 5772 5771 5771 5770 5770 5770 5770 5769 5769 5770 5769 5767 5764 5761 5759 5757 5756 5754 5753 5751 5750
5810 5810 5809 5807 5804 5801 5799 5796 5794 5792 5788 5786 5784 5783 5782 5782 5780 5779 5777 5775 5775 5774 5773 5773 5772 5772 5772 5772 5771 5771 5770 5771 5769 5766 5762 5761 5759 5757 5756 5754 5752 5751 5750
5813 5811 5810 5808 5804 5801 5800 5798 5796 5794 5791 5788 5786 5786 5784 5783 5782 5781 5780 5778 5777 5777 5776 5775 5774 5774 5774 5773 5772 5772 5771 5770 5768 5765 5762 5761 5759 5758 5756 5754 5752 5751 5750
5814 5811 5810 5807 5803 5801 5799 5798 5798 5795 5793 5791 5789 5787 5786 5784 5783 5783 5781 5780 5780 5779 5778 5776 5775 5775 5773 5773 5772 5771 5770 5770 5768 5766 5763 5761 5759 5758 5756 5754 5752 5751 5750
5816 5813 5811 5808 5804 5801 5799 5798 5798 5797 5794 5792 5790 5788 5786 5785 5784 5783 5781 5781 5780 5780 5779 5777 5776 5774 5773 5772 5772 5771 5771 5770 5769 5767 5763 5760 5760 5758 5756 5754 5753 5752 5750
5818 5816 5812 5809 5806 5802 5800 5799 5799 5797 5796 5793 5791 5789 5787 5786 5784 5783 5782 5781 5780 5780 5779 5778 5776 5775 5773 5772 5771 5772 5771 5770 5769 5767 5765 5762 5760 5758 5756 5755 5753 5752 5750
5821 5816 5814 5813 5807 5803 5801 5800 5800 5798 5796 5794 5791 5789 5787 5786 5785 5783 5782 5781 5780 5780 5780 5778 5776 5774 5772 5771 5771 5771 5771 5770 5770 5768 5766 5764 5761 5759 5756 5755 5753 5752 5751
5823 5818 5814 5812 5808 5804 5802 5800 5799 5798 5796 5794 5792 5790 5788 5787 5785 5784 5782 5781 5781 5780 5779 5779 5776 5774 5771 5770 5771 5771 5771 5770 5770 5769 5767 5765 5764 5761 5758 5755 5753 5752 5751
5824 5819 5815 5811 5808 5805 5803 5800 5798 5797 5795 5794 5792 5790 5788 5787 5786 5784 5783 5782 5781 5779 5777 5776 5774 5774 5772 5771 5772 5771 5771 5771 5770 5769 5767 5766 5764 5762 5760 5757 5754 5752 5750
5825 5819 5814 5810 5807 5805 5801 5797 5793 5792 5793 5792 5792 5790 5789 5787 5786 5784 5783 5781 5780 5778 5775 5774 5773 5771 5770 5771 5767 5765 5768 5771 5770 5768 5767 5766 5765 5763 5761 5759 5756 5753 5751
5825 5820 5815 5811 5808 5805 5802 5799 5796 5794 5793 5792 5791 5789 5788 5787 5785 5785 5782 5780 5778 5776 5774 5773 5771 5768 5769 5770 5765 5759 5754 5757 5763 5769 5766 5764 5764 5763 5761 5760 5757 5754 5752
5827 5822 5818 5813 5809 5806 5804 5800 5798 5794 5792 5790 5788 5787 5787 5785 5784 5783 5781 5779 5777 5775 5772 5771 5770 5768 5765 5767 5768 5761 5751 5746 5752 5760 5763 5763 5762 5761 5760 5759 5757 5755 5753
5831 5826 5822 5816 5811 5807 5804 5800 5794 5789 5786 5787 5787 5786 5785 5784 5783 5781 5779 5778 5776 5774 5772 5771 5770 5769 5766 5762 5765 5766 5763 5758 5750 5747 5754 5759 5760 5759 5758 5758 5756 5754 5752
5836 5830 5824 5818 5812 5808 5805 5801 5796 5792 5790 5789 5788 5784 5783 5782 5782 5780 5778 5776 5775 5773 5771 5770 5769 5767 5766 5763 5762 5762 5761 5759 5758 5749 5744 5749 5753 5756 5757 5756 5754 5753 5750
5837 5832 5826 5817 5812 5809 5805 5801 5797 5793 5789 5786 5783 5781 5780 5780 5780 5779 5777 5775 5773 5772 5770 5768 5767 5765 5764 5763 5762 5761 5758 5755 5753 5752 5747 5746 5747 5751 5754 5755 5754 5752 5749